Location: Ariel
(45.9570°N, 122.5700°W)
Time: 15:23:35
(UTC-08:00)

Transit 4A - Pass Details

Date: 03 November 2020
Orbit: 862 x 982 km, 66.8° (Epoch: 03 December)

Event Time Altitude Azimuth Distance (km) Brightness Sun altitude
Rises 18:42:23 0° 316° (NW) 3,686 11.6 -19.4°
Reaches altitude 10° 18:47:24 10° 350° (N) 2,745 10.4 -20.3°
Maximum altitude 18:49:15 11° 7° (N) 2,655 10.2 -20.6°
Drops below altitude 10° 18:51:07 10° 24° (NNE) 2,743 10.1 -20.9°
Enters shadow 18:51:30 10° 27° (NNE) 2,782 10.1 -21.0°
